Regional Weather Roundup
Issued by NWS

Home | Current Version | Previous Version | Graphics & Text | Print | Product List | Glossary On
Versions: 1 2 3 4 5 6 7 8 9 10 11 12 13 14 15 16 17 18 19 20 21 22 23 24 25 26 27 28 29 30 31 32 33 34 35 36 37 38 39 40 41 42 43 44 45 46 47 48 49 50
000
ASUS45 KTFX 191010
RWRMT
MONTANA REGIONAL WEATHER ROUNDUP
NATIONAL WEATHER SERVICE GREAT FALLS MT
400 AM MDT THU APR 19 2018

NOTE: "FAIR" INDICATES FEW OR NO CLOUDS BELOW 12000 FEET WITH NO
SIGNIFICANT WEATHER AND/OR OBSTRUCTIONS TO VISIBILITY.

MTZ001>007-043-191100-
WEST OF THE DIVIDE

CITY           SKY/WX    TMP DP  RH WIND       PRES   REMARKS
KALISPELL      FAIR      32  26  78 NW5       30.11
MISSOULA       FAIR      32  23  69 CALM      30.10R
BUTTE          FAIR      30  21  69 CALM      30.09R
MULLAN PASS    FAIR      31  18  58 SE8       30.06S WCI  23
ANACONDA         N/A     28  21  74 SE5       30.09S
DEER LODGE       N/A     32  23  69 W3        30.11R
HAMILTON         N/A     32  25  74 MISG      30.09
RONAN            N/A     32  28  86 CALM      30.12S
$$

MTZ008-052>055-191100-
SOUTHWEST MONTANA

CITY           SKY/WX    TMP DP  RH WIND       PRES   REMARKS
BOZEMAN        FAIR      31  24  75 E5        30.09
DILLON         FAIR      29  23  78 S5        30.07R
ENNIS          FAIR      23  19  86 NE6       30.11S WCI  16
W YELLOWSTONE  FAIR      19  18  93 CALM      30.07S
THREE FORKS      N/A     31  25  78 CALM      30.07S
$$

MTZ009-010-012-014-046-048-049-054-191100-
EAST SLOPES AND CENTRAL MONTANA

CITY           SKY/WX    TMP DP  RH WIND       PRES   REMARKS
CUT BANK       FAIR      28  25  88 NE6       30.15S WCI  22
GREAT FALLS    FAIR      31  24  75 W6        30.13R WCI  25
HELENA         FAIR      35  23  61 W8        30.10F WCI  29
AUGUSTA        MOCLDY    31  26  79 N8        30.12S WCI  24
BOWMANS CRNR   MOCLDY    32  24  72 CALM      30.10S
CHOTEAU          N/A     28  25  86 NW6       30.15S WCI  22
FAIRFIELD      CLOUDY    29  25  84 NW5       30.12S
POWER          FAIR      31  25  78 NW5       30.12S
RAYNESFORD     MOCLDY    39  21  48 E14       30.12S WCI  30
ULM            MOCLDY    31  26  82 CALM      30.13S
$$

MTZ011-013-016-021-045-047-050-051-191100-
NORTH CENTRAL MONTANA

CITY           SKY/WX    TMP DP  RH WIND       PRES   REMARKS
HAVRE          FAIR      35  32  88 E13       30.18  WCI  26
LEWISTOWN      FAIR      38  23  55 E13       30.15S WCI  30
N BAR RANCH    FAIR      32  21  64 NW3       30.21S
CHINOOK          N/A     36  36 100 MISG      30.23S
GEYSER         MOCLDY    31  24  72 CALM      30.14S
GRASS RANGE    FAIR      33  25  73 W3        30.16S
STANFORD       CLOUDY    38  23  54 S8        30.14S WCI  32
$$

MTZ017>020-022>027-061-062-191100-
NORTHEAST MONTANA

CITY           SKY/WX    TMP DP  RH WIND       PRES   REMARKS
GLASGOW        FOG       33  32  96 E17       30.30R VSB 3/4 WCI  22
GLENDIVE       MIX PCPN  31  31 100 NE10      30.31S VSB 1/4 WCI  22
JORDAN           N/A     33  30  88 E5        30.25S
MALTA          CLEAR     37  34  87 NE9       30.25S WCI  31
SIDNEY         FOG       33  32  96 E6        30.35S VSB 1/2 WCI  28
WOLF POINT     FOG       33  32  96 E10       30.35  VSB 1/2 WCI  25
PLENTYWOOD       N/A     30  30 100 SE7       30.35R VSB 1/4 WCI  23
POPLAR           N/A     32  30  93 E7        30.36R VSB 3/4 WCI  26
$$

MTZ028>42-056>058-191100-
SOUTHCENTRAL AND SOUTHEAST MONTANA

CITY           SKY/WX    TMP DP  RH WIND       PRES   REMARKS
BAKER          FAIR      28  28 100 SE7       30.30R WCI  21
BILLINGS       FAIR      36  24  62 N8        30.13F WCI  30
LIVINGSTON     FAIR      32  25  75 W3        30.11F
MILES CITY     FAIR      34  31  88 NE7       30.26  WCI  28
BIG TIMBER     PTCLDY    36  23  60 NE6       30.14  WCI  31
FORSYTH          N/A     36  34  93 E7        30.23S WCI  30
HARLOWTON      FAIR      30  25  79 N5        30.15F
LAUREL           N/A     37  23  56 NE14      30.14S WCI  29
$$

REGIONAL REPORTS...DAKOTAS

CITY           SKY/WX    TMP DP  RH WIND       PRES   REMARKS
WILLISTON      CLOUDY    33  32  96 NE7       30.37R FOG     WCI  27
MINOT          CLOUDY    36  33  89 W3        30.35R FOG
DICKINSON      SNOW      26  25  96 E6        30.31S VSB<1/4 WCI  19
BEACH          FAIR      27  27 100 SE6       30.34S WCI  20
CROSBY         FOG       30  30 100 SW3       30.38R VSB 1/4
TIOGA          FOG       32  32 100 CALM      30.37S VSB 1/4
WATFORD CITY   CLOUDY    34  34 100 CALM      30.36R FOG
BISMARCK       FAIR      24  23  96 CALM      30.38R
GRAND FORKS    FAIR      30  28  92 CALM      30.35R
FARGO          FAIR      31  29  92 CALM      30.35R
BUFFALO SD       N/A     33  29  85 E8        30.23  WCI  26
RAPID CITY     FAIR      29  27  92 CALM      30.31R
$$

REGIONAL REPORTS...WYOMING/IDAHO/WASHINGTON

CITY           SKY/WX    TMP DP  RH WIND       PRES   REMARKS
GILLETTE       FAIR      36  26  67 S15       30.23S WCI  27
SHERIDAN       FAIR      35  24  64 S3        30.17F
BUFFALO WY     FAIR      34  21  59 SE5       30.20F
CODY           FAIR      35  23  61 S5        30.13S
YELLOWSTONE LA   N/A     18  13  80 CALM      30.11F
IDAHO FALLS    FAIR      35  28  75 N8        29.98F WCI  29
SALMON         CLOUDY    37  27  67 CALM      30.05R
BOISE          FAIR      44  32  62 SW3       29.91F
SPOKANE        FAIR      38  29  70 NE5       30.11S
$$

REGIONAL REPORTS...ALBERTA

CITY           SKY/WX    TMP DP  RH WIND       PRES   REMARKS
CALGARY        PTCLDY    28  21  74 CALM      30.15S
CARDSTON         N/A     28  25  86 SE3         N/A
EDMONTON       CLEAR     32  18  55 S6        30.15S WCI  26
FORT MCMURRAY  CLEAR     28  23  80 E5        30.10R
HIGH LEVEL     PTCLDY    30  21  69 S6        29.90R WCI  24
LETHBRIDGE     CLEAR     34  25  69 CALM      30.16S
LLOYDMINSTER   CLEAR     28  27  93 S6        30.20S WCI  22
MEDICINE HAT   CLEAR     39  30  70 S7        30.20S
MILK RIVER       N/A     30  27  86 CALM        N/A
ONEFOUR          N/A     32  30  93 E15         N/A  WCI  22
PEACE RIVER    PTCLDY    28  19  69 CALM      30.04S
PINCHER CREEK  MOCLDY    27  23  86 W7        30.15S WCI  19
WATERTON GATE    N/A     28  21  74 SW7         N/A  WCI  21
$$

REGIONAL REPORTS...SASKATCHEWAN

CITY           SKY/WX    TMP DP  RH WIND       PRES   REMARKS
CORONACH         N/A     28  28 100 SE5         N/A
CYPRESS HILLS    N/A     30  25  80 SE8         N/A  WCI  23
ESTEVAN        FOG       30  30 100 W5        30.37R VSB 1/8
MOOSE JAW        N/A     27  23  86 SE7         N/A  WCI  19
PRINCE ALBERT  PTCLDY    25  23  93 SE2       30.32R
REGINA         MOCLDY    23  21  93 E5        30.35R FOG
ROCKGLEN         N/A     28  28 100 S6          N/A  WCI  22
SASKATOON      PTCLDY    34  28  80 S7        30.31R WCI  28
SWIFT CURRENT  CLEAR     30  27  86 S10       30.26S WCI  21
VAL MARIE        N/A     30  27  86 E5          N/A
$$



USA.gov is the U.S. government's official web portal to all federal, state and local government web resources and services.